Location: La Grange au Rouge
(47.3006°N, 1.7862°E)
Time: 06:22:21
(UTC+00:00)

Daily predictions for brighter satellites

Satellite Brightness Start Highest point End
(mag) Time Altitude Azimuth Time Altitude Azimuth Time Altitude Azimuth
Cosmos 1607 4.5 20:15:30 10° SW 20:21:41 67° NW 20:27:51 10° NE
Gbstr 26 Del rocket 4.2 20:17:38 10° W 20:22:07 52° N 20:27:40 10° ENE
TSX-5 3.4 20:19:08 10° NNW 20:22:12 59° ENE 20:25:32 10° SE
NOSS 3-4 (A) 4.0 20:18:03 10° NW 20:24:47 73° NE 20:32:44 10° SE
NOSS 3-4 (C) 4.0 20:18:06 10° NW 20:24:49 72° NE 20:32:44 10° SE
Terra 1.9 20:20:18 10° SSE 20:24:57 70° ENE 20:29:40 10° N
Cosmos 1943 Rocket 4.4 20:23:31 10° WSW 20:28:22 30° NW 20:33:17 10° NNE
Cosmos 1634 Rocket 4.1 20:22:14 10° N 20:28:26 88° W 20:34:37 10° S
SPOT 3 Rocket 4.5 20:24:07 10° SE 20:28:47 35° ENE 20:33:29 10° N
Cosmos 1606 3.9 20:26:20 10° NNW 20:29:08 32° W 20:31:53 10° SSW
Spot 2 Rocket 3.7 20:27:56 10° SSE 20:32:54 57° ENE 20:37:53 10° N
IRS-1A Rocket 4.3 20:27:27 10° SSE 20:32:57 78° ENE 20:38:31 10° NNW
Sich 1 Rocket 4.4 20:29:14 10° N 20:33:30 38° ENE 20:37:43 10° SE
Cosmos 1486 Rocket 4.1 20:30:36 10° SSW 20:35:52 88° ESE 20:41:13 10° NNE
USA 186 4.1 20:34:27 10° SW 20:36:25 18° W 20:38:24 10° NW
Cosmos 1818 3.9 20:32:14 10° NNW 20:37:39 61° NE 20:42:53 11° SE
SPOT 5 4.2 20:32:39 10° S 20:37:41 45° W 20:42:46 10° NNW
Cosmos 1674 Rocket 3.9 20:34:07 10° SSE 20:38:21 49° E 20:42:38 10° NNE
ERS-1 Rocket 3.2 20:39:15 10° S 20:44:13 70° WSW 20:49:14 10° NNW
USA 245 3.3 20:40:57 10° SSE 20:45:09 63° ENE 20:48:32 10° N
Cosmos 2279 Rocket 4.0 20:38:59 10° N 20:45:15 86° E 20:51:31 10° S
Cosmos 2297 3.7 20:42:33 10° SSW 20:48:10 75° ESE 20:53:51 10° NNE
Meteor 1-21 Rocket 4.2 20:42:38 10° S 20:48:15 70° E 20:53:48 10° NNE
Okean-O 3.0 20:47:08 10° S 20:51:28 65° WSW 20:55:50 10° NNW
Cosmos 1812 3.6 20:49:10 10° NNE 20:51:50 24° ENE 20:53:43 14° ESE
Cosmos 1378 Rocket 3.5 20:50:03 10° S 20:54:20 86° W 20:58:39 10° N
Cosmos 1656 Rocket 4.2 20:48:53 10° SW 20:54:22 62° WNW 20:59:50 10° NNE
BlueWalker 3 3.5 20:54:09 10° WNW 20:57:29 31° N 21:00:48 10° ENE
Okean O Rocket 2.7 20:54:06 10° S 20:58:14 42° W 21:02:25 10° NNW
Cosmos 990 Rocket 4.3 20:53:46 10° S 20:58:41 47° ESE 21:03:40 10° NNE
Cosmos 1025 Rocket 3.3 20:54:42 10° S 20:58:52 50° E 21:03:06 10° NNE
In-Cosmos 22 Rocket 4.5 21:05:29 10° SSW 21:11:18 76° WNW 21:17:04 10° N
Cosmos 1503 Rocket 4.5 21:13:01 10° SSW 21:18:08 63° WNW 21:23:16 10° NNE
DNEPR-1 R/B 4.4 21:17:24 10° NNW 21:21:24 39° NE 21:24:32 15° ESE
Cosmos 2369 Rocket 2.7 21:17:48 10° SW 21:23:28 65° WNW 21:29:08 10° NNE
ASTEX 1 3.4 21:22:36 10° N 21:27:30 84° W 21:32:11 11° S
Cosmos 1354 Rocket 4.2 21:22:24 10° SSW 21:27:37 73° WNW 21:32:51 10° NNE
SAR-Lupe-2 3.9 21:29:36 19° S 21:32:02 61° WSW 21:35:37 10° NNW
Cosmos 2297 Rocket 3.9 21:30:17 10° N 21:34:47 24° NE 21:39:15 10° E
ISS -2.9 21:31:43 10° WNW 21:34:58 47° NNE 21:37:42 14° E
DELTA 2 R/B (1) 4.2 21:30:30 10° SW 21:35:23 33° SSE 21:38:43 18° ESE
Cosmos 1937 Rocket 4.4 21:34:18 22° SE 21:36:19 28° E 21:40:38 10° NE
Ariane Rocket 3.1 21:32:58 17° S 21:36:53 71° WSW 21:41:56 10° NNW
COBE Rocket 3.8 21:32:48 10° NNE 21:37:26 64° E 21:40:36 20° S
Okean 2 Rocket 4.1 21:35:04 10° NNW 21:39:11 41° W 21:42:59 12° SSW
Cosmos 2098 Rocket 3.8 21:36:51 10° NNE 21:39:42 27° ENE 21:40:46 23° ESE
Tiangong 0.1 21:37:24 10° SW 21:38:13 15° SSW 21:38:13 15° SSW
CZ-4C R/B 1.7 21:41:01 10° SW 21:45:17 85° SE 21:50:45 10° NE
Cosmos 44 3.1 21:46:03 10° SW 21:50:21 78° NW 21:54:48 10° NE
Lacrosse 5 rocket 3.8 21:47:34 10° NW 21:50:32 20° N 21:53:31 10° NE
Cosmos 1515 2.5 21:48:24 10° N 21:51:00 87° WSW 21:51:23 61° S
Okean 1 Rocket 4.2 21:49:06 10° NNW 21:53:09 38° W 21:56:28 14° SSW
Cosmos 1975 Rocket 3.0 21:53:28 29° SSE 21:55:33 62° E 21:59:49 10° NNE
Nadezhda 4 Rocket 4.5 21:51:55 10° SSW 21:58:09 62° WNW 22:04:27 10° N
Cosmos 2228 3.3 21:57:27 10° N 22:01:36 52° ENE 22:03:10 33° SE
Terra 4.3 22:00:18 10° SW 22:03:00 15° W 22:05:42 10° NW
Cosmos 1455 Rocket 3.3 22:00:32 10° NNW 22:04:48 61° W 22:07:03 26° SSW
Cosmos 2285 Rocket 4.1 22:00:46 10° SSW 22:07:08 78° WNW 22:13:37 10° NNE
Cosmos 2227 Rocket 4.1 22:03:11 10° N 22:07:26 21° NE 22:11:39 10° E
Cosmos 1867 3.5 22:02:46 12° SSW 22:07:52 69° ESE 22:13:18 10° NE
Gbstr 26 Del rocket 3.9 22:04:03 10° WNW 22:09:11 70° NNE 22:15:19 11° ESE
BREEZE M DEB (TANK) 2.1 22:05:53 10° WSW 22:10:02 58° SSE 22:10:09 57° SE
BREEZE-M DEB (TANK) 3.5 22:06:01 10° W 22:15:54 74° NNW 22:19:07 10° ENE
Cosmos 2026 Rocket 4.0 22:12:17 19° SSW 22:16:50 78° W 22:22:55 10° N
Cosmos 1898 Rocket 3.4 22:16:18 21° SSW 22:19:51 88° E 22:25:08 10° NNE
Iridium 82 4.4 22:16:44 10° N 22:20:04 68° W 22:20:46 49° SSW
CZ-2C R/B 4.3 22:17:54 10° NNE 22:22:25 43° E 22:23:40 35° SE
USA 81 4.1 22:25:23 26° SSW 22:28:24 74° W 22:33:41 10° N
ARIANE 5 R/B 2.9 22:30:39 37° SE 22:32:07 56° ENE 22:36:28 10° N
Cosmos 1553 Rocket 4.0 22:26:28 10° N 22:32:46 81° E 22:35:55 32° SSE
BlueWalker 3 2.2 22:32:00 10° WNW 22:35:38 61° NNE 22:36:56 35° E
SL-08 ROCKET BODY 4.5 22:36:29 34° SSE 22:39:01 61° E 22:44:49 10° NNE
Cosmos 1092 Rocket 4.4 22:35:06 18° SSW 22:39:54 60° WNW 22:46:09 10° N
CZ-4C R/B 3.0 22:42:26 10° NNE 22:46:07 80° ESE 22:46:38 63° S
DELTA 2 DEB (DPAF) 4.1 22:42:14 10° N 22:46:07 61° WNW 22:47:30 36° SW
ATLAS 2AS CENTAUR R/B 4.2 22:42:26 10° NNW 22:48:28 32° NNE 22:54:24 10° E
Cosmos 1536 Rocket 3.6 22:48:20 49° SE 22:49:13 61° E 22:53:35 10° NNE
Cosmos 1656 3.6 22:47:10 32° SSW 22:49:49 78° ESE 22:55:22 10° NNE
RESURS DK-1 2.1 22:47:52 10° NNW 22:51:53 86° WSW 22:52:29 62° SSE
S3M 4.2 22:47:25 10° N 22:53:41 60° ENE 22:56:23 34° SE
Cosmos 2263 Rocket 4.0 22:50:31 10° N 22:55:03 24° NE 22:59:32 10° E
Cosmos 1544 Rocket 3.9 22:51:01 10° NNW 22:55:18 58° W 22:56:31 42° SSW
Cosmos 1606 Rocket 4.1 22:53:38 10° N 22:57:52 47° ENE 22:58:50 40° ESE
Cosmos 2058 2.7 23:01:15 61° SE 23:01:37 65° E 23:05:31 10° NNE
Cosmos 1400 Rocket 2.8 22:58:50 10° NNW 23:02:36 61° W 23:03:02 56° SW
Meteor 2-20 Rocket 4.4 22:56:40 10° NNW 23:02:42 75° W 23:05:05 37° S
USA 215 3.6 22:58:20 10° ESE 23:04:47 65° NNE 23:11:15 10° NW
Cosmos 1782 2.4 23:05:35 10° N 23:09:16 78° E 23:09:26 75° ESE
Cosmos 2112 Rocket 4.1 23:05:31 10° NNW 23:10:46 68° WSW 23:12:22 44° S
ISS -2.5 23:08:29 10° WNW 23:10:32 31° W 23:10:32 31° W
Cosmos 1937 Rocket 4.5 23:14:20 17° SW 23:17:59 42° WNW 23:22:52 10° N
Cosmos 1862 3.5 23:18:16 50° E 23:18:16 50° E 23:21:42 10° NNE
Cosmos 2297 Rocket 2.2 23:13:45 10° NNW 23:19:24 74° WSW 23:21:13 44° S
DELTA 2 R/B (1) 4.5 23:16:02 10° WSW 23:19:25 30° SW 23:19:25 30° SW
Cosmos 1726 Rocket 3.9 23:16:33 10° N 23:21:09 62° ENE 23:22:11 48° SE
Cosmos 1680 Rocket 4.1 23:16:16 10° NNW 23:21:18 46° WSW 23:22:44 37° SW
ALOS 2 2.5 23:22:00 59° S 23:22:48 81° WSW 23:27:14 10° NNW
Cosmos 2058 Rocket 4.2 23:18:46 10° N 23:22:49 33° ENE 23:23:59 29° ESE
PSLV R/B 3.8 23:19:02 10° NNE 23:23:41 63° E 23:24:32 52° SSE
Lacrosse 5 rocket 2.4 23:25:00 10° NW 23:28:44 40° NNE 23:31:05 19° E
Cosmos 1980 Rocket 3.2 23:28:23 27° ESE 23:29:12 28° ESE 23:33:55 10° NE
MetOp-A 4.3 23:33:09 32° WSW 23:33:20 33° W 23:36:47 10° NNW
Cosmos 1697 Rocket 2.7 23:32:03 45° S 23:33:37 65° ESE 23:39:15 10° NNE
CZ-4C R/B 4.3 23:30:21 10° W 23:34:23 25° NNW 23:39:19 10° NNE
Cosmos 1356 Rocket 3.6 23:30:49 10° N 23:34:48 56° ENE 23:35:17 52° ESE
Cosmos 2360 4.4 23:33:07 31° SW 23:35:57 71° WNW 23:41:40 10° NNE
Cosmos 1892 Rocket 3.5 23:39:40 60° SE 23:40:09 67° E 23:44:26 10° NNE
CZ-2C R/B 4.3 23:36:52 15° ESE 23:40:22 28° ENE 23:45:04 10° N
Spot 1 4.2 23:36:30 10° NNE 23:41:16 72° ESE 23:42:05 57° SSE
PSLV R/B 4.2 23:39:48 10° NNE 23:43:40 49° E 23:43:44 49° ESE
Cosmos 1441 Rocket 3.4 23:44:49 51° ENE 23:44:49 51° ENE 23:47:49 10° NNE
Meteor 2-3 Rocket 3.9 23:46:45 43° SSE 23:48:33 65° E 23:54:16 10° NNE
GEOS 3 Rocket 3.5 23:44:31 10° NE 23:49:49 82° SE 23:51:46 41° SSW
Cosmos 2227 Rocket 2.1 23:46:31 10° NNW 23:52:14 86° WSW 23:54:06 44° SSE
Cosmos 1125 Rocket 3.7 23:52:54 46° SSE 23:54:00 56° ESE 23:59:08 10° NNE
